Hourly Data Report for September 22, 2017

All times are specified in Local Standard Time (LST). Add 1 hour to adjust for Daylight Saving Time where and when it is observed.

ST. STEPHEN
NEW BRUNSWICK

45°12'36.600" N
67°15'10.300" W
26.10 m
8104935
71607
WSS

Download Data

Hourly Data (September 2017)
Hourly Data Report for September 22, 2017
Temp Definition
°C
Dew Point Temp Definition
°C
Rel Hum Definition
%
Wind Dir Definition
10's deg

Wind Spd Definition
km/h
Visibility Definition
km
Stn Press Definition
kPa
Hmdx Definition


Wind Chill Definition


Weather Definition


TIME
00:00 11.8 6.6 70 4 8   101.89     LegendNANA
01:00 10.2 6.5 77 9 5   101.91     LegendNANA
02:00 8.3 6.0 86 0 1   101.89     LegendNANA
03:00 7.8 6.0 88 27 2   101.89     LegendNANA
04:00 7.0 5.6 91 15 1   101.85     LegendNANA
05:00 6.8 5.9 94 29 4   101.85     LegendNANA
06:00 5.4 4.3 93 24 1   101.86     LegendNANA
07:00 5.9 5.2 95 0 1   101.88     LegendNANA
08:00 12.4 9.1 80 4 5   101.89     LegendNANA
09:00 14.4 8.4 67 6 9   101.89     LegendNANA
10:00 16.9 9.3 61 6 14   101.88     LegendNANA
11:00 19.5 9.5 53 5 16   101.82     LegendNANA
12:00 21.6 7.9 41 8 10   101.78     LegendNANA
13:00 23.0 7.8 38 8 8   101.70     LegendNANA
14:00 24.1 8.9 38 10 8   101.64 25   LegendNANA
15:00 24.6 8.7 36 8 5   101.59 25   LegendNANA
16:00 24.7 10.8 41 16 6   101.55 26   LegendNANA
17:00 22.7 10.6 46 12 7   101.56     LegendNANA
18:00 19.8 8.7 49 13 3   101.58     LegendNANA
19:00 14.8 9.9 73   0   101.56     LegendNANA
20:00 12.5 10.0 84   0   101.57     LegendNANA
21:00 11.5 9.8 89   0   101.54     LegendNANA
22:00 10.9 9.3 90   0   101.56     LegendNANA
23:00 10.2 9.0 92   0   101.55     LegendNANA

Notes on Data Quality.

Legend

  • E = Estimated
  • M = Missing
  • NA = Not Available
  • ‡ = Partner data that is not subject to review by the National Climate Archives
Date modified: